EW5804 Weather Reports


time (UTC)temp
C
wind
direction
speed
KPH
gust
KPH
rain 1hr
cm
rain 24hr
cm
rain mn
cm
humidity
%
barometer
mb
20260507095531 18 255 1.6 6.4 0.18 0.36 0.36 91 1010.3
20260507095025 18 257 1.6 6.4 0.18 0.36 0.36 91 1010.1
20260507094738 18 254 1.6 4.8 0.13 0.30 0.33 91 1010.1
20260507094013 18 254 1.6 6.4 0.13 0.28 0.28 91 1010.4
20260507093507 18 254 3.2 6.4 0.13 0.25 0.25 90 1010.2
20260507093001 18 261 1.6 4.8 0.10 0.23 0.23 90 1010.2
20260507092454 18 260 1.6 6.4 0.08 0.20 0.20 90 1010.0
20260507091949 18 261 1.6 6.4 0.05 0.18 0.20 90 1009.7
20260507091443 18 262 3.2 6.4 0.05 0.18 0.18 90 1009.7
20260507090938 18 257 3.2 12.9 0.05 0.18 0.18 90 1009.3
20260507090431 18 193 3.2 12.9 0.05 0.18 0.18 90 1009.2
20260507085925 18 186 3.2 11.3 0.05 0.18 0.18 91 1009.2
20260507085642 18 223 3.2 9.7 0.05 0.18 0.18 91 1009.3
20260507084915 18 248 3.2 9.7 0.05 0.18 0.18 91 1009.6
20260507084410 18 241 3.2 14.5 0.05 0.18 0.18 90 1009.5
20260507084401 18 219 3.2 14.5 0.03 0.15 0.15 90 1009.6
20260507083355 18 168 1.6 8.0 0.00 0.13 0.13 90 1009.9
20260507083113 18 197 3.2 8.0 0.00 0.13 0.13 90 1009.9
20260507082344 18 208 4.8 11.3 0.00 0.13 0.13 90 1009.9
20260507082100 18 280 4.8 11.3 0.00 0.13 0.13 91 1010.0
20260507081331 18 211 4.8 11.3 0.00 0.13 0.13 90 1009.8
20260507080826 18 198 3.2 12.9 0.00 0.13 0.13 90 1009.7
20260507080321 18 210 3.2 12.9 0.00 0.13 0.13 90 1009.7
20260507075820 18 195 1.6 8.0 0.00 0.13 0.13 90 1009.7
20260507075322 18 190 3.2 9.7 0.00 0.13 0.13 90 1009.8
20260507074820 18 169 3.2 9.7 0.00 0.13 0.13 90 1010.0
20260507074321 18 192 3.2 8.0 0.00 0.13 0.13 90 1010.2
20260507074038 18 203 3.2 8.0 0.00 0.13 0.13 90 1010.2
20260507073321 18 229 3.2 8.0 0.00 0.13 0.13 90 1010.4
20260507072821 18 207 3.2 8.0 0.00 0.13 0.13 90 1010.4
20260507072318 18 219 3.2 8.0 0.00 0.13 0.13 90 1010.3
20260507071816 18 187 1.6 6.4 0.00 0.13 0.13 90 1010.3
20260507071314 18 177 3.2 6.4 0.00 0.13 0.13 90 1010.2
20260507071033 18 192 1.6 9.7 0.00 0.13 0.13 90 1010.3
20260507070314 18 211 1.6 9.7 0.03 0.13 0.13 90 1010.5
20260507065812 18 215 1.6 8.0 0.05 0.13 0.13 90 1010.4
20260507065310 18 193 1.6 8.0 0.05 0.13 0.13 90 1010.4
20260507064808 18 217 1.6 6.4 0.05 0.13 0.13 90 1010.4
20260507064309 18 222 1.6 6.4 0.08 0.13 0.13 89 1010.3
20260507063809 18 187 3.2 6.4 0.08 0.13 0.13 89 1010.4
20260507063308 18 235 3.2 6.4 0.08 0.13 0.13 89 1010.1
20260507062805 18 232 3.2 6.4 0.08 0.13 0.13 89 1010.2
20260507062531 18 254 3.2 6.4 0.08 0.13 0.13 89 1010.1
20260507061804 18 193 3.2 6.4 0.08 0.13 0.13 89 1010.0
20260507061306 18 208 1.6 6.4 0.10 0.13 0.13 89 1010.0
20260507060804 19 207 1.6 4.8 0.08 0.10 0.13 89 1009.8
20260507060305 18 203 1.6 6.4 0.08 0.10 0.10 89 1009.7
20260507055804 19 196 3.2 8.0 0.05 0.08 0.08 89 1010.0
20260507055306 19 198 3.2 8.0 0.08 0.08 0.08 89 1010.5
20260507054804 19 153 3.2 8.0 0.08 0.08 0.08 88 1010.8
20260507054300 19 236 3.2 6.4 0.05 0.05 0.05 88 1010.9
20260507053800 19 181 3.2 9.7 0.05 0.05 0.05 88 1011.2
20260507053740 19 207 3.2 9.7 0.05 0.05 0.05 88 1011.2
20260507052800 19 203 1.6 4.8 0.05 0.05 0.05 87 1011.4
20260507052300 19 203 1.6 9.7 0.05 0.05 0.05 87 1011.5
20260507051800 19 261 3.2 9.7 0.05 0.05 0.05 87 1011.6
20260507051300 19 213 3.2 9.7 0.03 0.03 0.05 87 1011.6
20260507050801 19 239 3.2 9.7 0.03 0.03 0.03 87 1011.6
20260507050300 19 200 3.2 6.4 0.03 0.03 0.03 87 1011.6
20260507045755 19 229 3.2 6.4 0.03 0.03 0.03 86 1011.7
20260507045257 19 209 1.6 6.4 0.00 0.00 0.00 86 1011.6
20260507044756 19 191 1.6 6.4 0.00 0.00 0.00 86 1011.4
20260507044255 19 227 1.6 6.4 0.00 0.00 0.00 85 1011.3
20260507043756 20 227 1.6 6.4 0.00 0.00 0.00 85 1011.2
20260507043516 20 197 1.6 4.8 0.00 0.00 0.00 84 1011.1
20260507042754 20 197 3.2 6.4 0.00 0.00 0.00 84 1011.0
20260507042255 20 215 3.2 6.4 0.00 0.00 0.00 84 1010.9
20260507042248 20 226 3.2 6.4 0.00 0.00 0.00 83 1010.9
20260507041242 20 232 3.2 6.4 0.00 0.00 0.00 83 1011.1
20260507040733 20 217 1.6 8.0 0.00 0.00 0.00 82 1011.1
20260507040236 20 206 1.6 8.0 0.00 0.00 0.00 82 1011.1
20260507035729 20 239 1.6 4.8 0.00 0.00 0.00 82 1011.2
20260507035231 20 257 3.2 8.0 0.00 0.00 0.00 82 1011.2
20260507034948 20 258 3.2 11.3 0.00 0.00 0.00 82 1011.0
20260507034230 20 184 3.2 11.3 0.00 0.00 0.00 82 1011.1
20260507033730 20 199 1.6 6.4 0.00 0.00 0.00 81 1011.0
20260507033226 20 178 1.6 6.4 0.00 0.00 0.00 81 1010.9
20260507032727 20 240 1.6 4.8 0.00 0.00 0.00 81 1010.8
20260507032227 20 242 1.6 4.8 0.00 0.00 0.00 81 1010.7
20260507031725 20 246 1.6 8.0 0.00 0.00 0.00 81 1010.8
20260507031225 20 231 1.6 8.0 0.00 0.00 0.00 82 1010.7
20260507030724 20 190 1.6 9.7 0.00 0.00 0.00 81 1010.6
20260507030222 20 239 3.2 9.7 0.00 0.00 0.00 81 1010.9
20260507025721 20 211 3.2 8.0 0.00 0.00 0.00 81 1010.6
20260507025222 20 217 3.2 9.7 0.00 0.00 0.00 81 1010.9
20260507024723 20 233 4.8 11.3 0.00 0.00 0.00 81 1010.9
20260507024221 20 190 3.2 11.3 0.00 0.00 0.00 81 1011.1
20260507023722 20 229 3.2 8.0 0.00 0.00 0.00 82 1011.2
20260507023234 20 240 3.2 11.3 0.00 0.00 0.00 82 1011.3
20260507022722 20 215 3.2 11.3 0.00 0.00 0.00 81 1011.2
20260507022221 20 229 1.6 11.3 0.00 0.00 0.00 81 1011.2
20260507021722 20 209 1.6 4.8 0.00 0.00 0.00 81 1011.4
20260507021235 20 209 1.6 4.8 0.00 0.00 0.00 81 1011.5
20260507020946 20 209 0.0 4.8 0.00 0.00 0.00 81 1011.3
20260507020218 20 208 0.0 1.6 0.00 0.00 0.00 81 1011.2
20260507015719 20 207 1.6 6.4 0.00 0.00 0.00 80 1011.2
20260507015218 20 207 1.6 6.4 0.00 0.00 0.00 80 1011.0
20260507014717 20 215 1.6 4.8 0.00 0.00 0.00 81 1011.1
20260507014435 20 219 1.6 8.0 0.00 0.00 0.00 81 1011.1
20260507013732 20 239 3.2 9.7 0.00 0.00 0.00 81 1011.2
20260507013218 20 257 3.2 9.7 0.00 0.00 0.00 81 1011.2
20260507012717 20 243 1.6 4.8 0.00 0.00 0.00 81 1011.2
20260507012215 20 203 1.6 6.4 0.00 0.00 0.00 80 1011.0
20260507011714 20 199 1.6 6.4 0.00 0.00 0.00 79 1010.8
20260507011213 20 216 1.6 4.8 0.00 0.00 0.00 79 1011.0
20260507010713 20 228 1.6 4.8 0.00 0.00 0.00 79 1011.0
20260507010213 20 228 0.0 6.4 0.00 0.00 0.00 78 1011.0
20260507005714 20 218 0.0 6.4 0.00 0.00 0.00 78 1011.0
20260507005431 21 200 1.6 6.4 0.00 0.00 0.00 78 1011.1
20260507004714 21 199 0.0 6.4 0.00 0.00 0.00 77 1011.1
20260507004214 21 209 0.0 4.8 0.00 0.00 0.00 77 1011.3
20260507003713 21 209 0.0 4.8 0.00 0.00 0.00 76 1011.3
20260507003215 21 189 1.6 9.7 0.00 0.00 0.00 76 1011.4
20260507002715 21 188 1.6 9.7 0.00 0.00 0.00 75 1011.4
20260507002216 21 239 1.6 4.8 0.00 0.00 0.00 75 1011.3
20260507001716 22 240 1.6 4.8 0.00 0.00 0.00 75 1011.1
20260507001213 22 219 1.6 3.2 0.00 0.00 0.00 74 1010.9
20260507000712 22 219 1.6 3.2 0.00 0.00 0.00 73 1011.0
20260507000212 22 220 1.6 9.7 0.00 0.00 0.00 73 1011.0
20260506235707 22 220 1.6 9.7 0.00 0.00 0.00 73 1010.9
20260506235207 22 208 1.6 9.7 0.00 0.00 0.00 73 1010.8
20260506234708 22 205 3.2 9.7 0.00 0.00 0.00 72 1010.8
20260506234420 23 203 3.2 8.0 0.00 0.00 0.00 72 1010.6
20260506233653 23 228 3.2 11.3 0.00 0.00 0.00 71 1010.5
20260506233146 23 213 1.6 11.3 0.00 0.00 0.00 71 1010.5
20260506232641 23 207 3.2 11.3 0.00 0.00 0.00 71 1010.6
20260506232135 23 202 1.6 4.8 0.00 0.00 0.00 70 1010.5
20260506231629 23 240 1.6 4.8 0.00 0.00 0.00 70 1010.4
20260506231123 23 239 3.2 11.3 0.00 0.00 0.00 69 1010.3
20260506230617 23 253 3.2 11.3 0.00 0.00 0.00 69 1010.4
20260506230112 23 220 4.8 11.3 0.00 0.00 0.00 69 1010.4
20260506230055 23 203 3.2 11.3 0.00 0.00 0.00 68 1010.4
20260506225059 24 181 3.2 11.3 0.00 0.00 0.00 68 1010.3
20260506224554 24 196 3.2 12.9 0.00 0.00 0.00 68 1010.5
20260506224309 24 261 3.2 12.9 0.00 0.00 0.00 67 1010.4
20260506223541 24 249 4.8 14.5 0.00 0.00 0.00 67 1010.3
20260506223254 24 199 6.4 19.3 0.00 0.00 0.00 66 1010.3
20260506222529 24 224 6.4 22.5 0.00 0.00 0.00 66 1010.4
20260506222023 24 236 6.4 22.5 0.00 0.00 0.00 66 1010.6
20260506221517 25 197 4.8 20.9 0.00 0.00 0.00 66 1010.5
20260506221010 24 204 4.8 20.9 0.00 0.00 0.00 66 1010.6
20260506220505 24 170 4.8 16.1 0.00 0.00 0.00 66 1010.6
20260506220000 24 256 4.8 16.1 0.00 0.00 0.00 66 1010.5
20260506215453 24 255 4.8 22.5 0.00 0.00 0.00 66 1010.5
20260506214947 24 203 4.8 22.5 0.00 0.00 0.00 65 1010.5
20260506214708 24 238 3.2 14.5 0.00 0.00 0.00 65 1010.3
20260506213935 24 268 4.8 16.1 0.00 0.00 0.00 65 1010.1
20260506213428 24 270 6.4 16.1 0.00 0.00 0.00 65 1010.1
20260506213140 24 211 4.8 12.9 0.00 0.00 0.00 66 1010.0
20260506212416 24 221 6.4 17.7 0.00 0.00 0.00 66 1010.1
20260506211912 24 216 6.4 17.7 0.00 0.00 0.00 66 1010.1
20260506211627 23 254 4.8 12.9 0.00 0.00 0.00 67 1010.2
20260506210859 23 265 6.4 19.3 0.00 0.00 0.00 67 1009.9
20260506210353 23 193 6.4 17.7 0.00 0.00 0.00 68 1009.9
20260506205848 24 132 6.4 17.7 0.00 0.00 0.00 67 1010.2
20260506205340 24 149 6.4 17.7 0.00 0.00 0.00 67 1010.0
20260506204835 24 192 6.4 17.7 0.00 0.00 0.00 66 1010.1
20260506204328 24 182 6.4 16.1 0.00 0.00 0.00 66 1010.1
20260506203824 24 211 6.4 16.1 0.00 0.00 0.00 66 1010.3
20260506203317 24 199 6.4 19.3 0.00 0.00 0.00 66 1010.2
20260506203032 24 176 8.0 19.3 0.00 0.00 0.00 65 1010.1
20260506202306 24 186 9.7 27.4 0.00 0.00 0.00 66 1010.2
20260506202252 24 176 9.7 27.4 0.00 0.00 0.00 65 1010.2
20260506201515 25 162 8.0 24.1 0.00 0.00 0.00 65 1010.4
20260506200746 25 131 8.0 29.0 0.00 0.00 0.00 64 1010.4
20260506200245 25 188 9.7 29.0 0.00 0.00 0.00 63 1010.6
20260506200005 25 165 9.7 27.4 0.00 0.00 0.00 64 1010.6
20260506195242 25 114 8.0 25.7 0.00 0.00 0.00 63 1010.7
20260506194744 25 218 9.7 19.3 0.00 0.00 0.00 63 1010.9
20260506194243 25 199 8.0 20.9 0.00 0.00 0.00 64 1010.9
20260506194005 25 175 8.0 20.9 0.00 0.00 0.00 63 1011.2
20260506193243 25 196 8.0 30.6 0.00 0.00 0.00 63 1011.2
20260506192741 25 207 9.7 30.6 0.00 0.00 0.00 63 1011.3
20260506192241 25 166 8.0 27.4 0.00 0.00 0.00 64 1011.4
20260506191741 25 286 8.0 27.4 0.00 0.00 0.00 64 1011.7
20260506191242 25 170 8.0 27.4 0.00 0.00 0.00 64 1011.8
20260506190741 25 203 6.4 22.5 0.00 0.00 0.00 65 1011.8
20260506190241 25 205 8.0 22.5 0.00 0.00 0.00 66 1011.9
20260506185741 24 230 8.0 22.5 0.00 0.00 0.00 65 1011.9
20260506185240 24 202 6.4 20.9 0.00 0.00 0.00 66 1012.0
20260506184741 24 205 6.4 19.3 0.00 0.00 0.00 66 1012.0
20260506184239 25 180 6.4 19.3 0.00 0.00 0.00 66 1012.1
20260506183739 25 203 8.0 27.4 0.00 0.00 0.00 66 1012.2
20260506183232 25 64 9.7 27.4 0.00 0.00 0.00 66 1012.2
20260506183221 25 207 9.7 24.1 0.00 0.00 0.00 66 1012.2
20260506182220 25 332 9.7 22.5 0.00 0.00 0.00 66 1012.2
20260506181715 24 237 9.7 22.5 0.00 0.00 0.00 66 1012.2
20260506181209 24 192 11.3 27.4 0.00 0.00 0.00 66 1012.2
20260506180704 24 192 11.3 27.4 0.00 0.00 0.00 65 1012.3
20260506180157 24 282 9.7 22.5 0.00 0.00 0.00 68 1012.3
20260506175652 24 207 8.0 22.5 0.00 0.00 0.00 68 1012.2
20260506175144 24 167 8.0 19.3 0.00 0.00 0.00 68 1012.3
20260506174900 23 228 9.7 25.7 0.00 0.00 0.00 68 1012.3
20260506174133 24 269 11.3 27.4 0.00 0.00 0.00 68 1012.4
20260506173628 23 355 9.7 27.4 0.00 0.00 0.00 69 1012.3
20260506173121 23 191 9.7 27.4 0.00 0.00 0.00 68 1012.4
20260506172614 23 175 9.7 27.4 0.00 0.00 0.00 69 1012.7
20260506172333 23 287 8.0 27.4 0.00 0.00 0.00 69 1012.8
20260506171604 23 163 8.0 19.3 0.00 0.00 0.00 71 1012.9
20260506171057 23 159 9.7 24.1 0.00 0.00 0.00 71 1012.8
20260506170550 22 186 8.0 24.1 0.00 0.00 0.00 72 1013.0
20260506165549 22 245 8.0 19.3 0.00 0.00 0.00 72 1013.4
20260506165047 22 201 6.4 20.9 0.00 0.00 0.00 73 1013.5
20260506164547 22 191 6.4 20.9 0.00 0.00 0.00 72 1013.6
20260506164046 22 211 6.4 17.7 0.00 0.00 0.00 72 1013.6
20260506163808 22 332 6.4 25.7 0.00 0.00 0.00 73 1013.7
20260506163048 22 184 8.0 25.7 0.00 0.00 0.00 72 1013.6
20260506162546 22 279 8.0 25.7 0.00 0.00 0.00 74 1013.5
20260506162536 22 269 6.4 25.7 0.00 0.00 0.00 74 1013.5
20260506161547 21 274 6.4 22.5 0.00 0.00 0.00 74 1013.5
20260506161324 21 182 6.4 22.5 0.00 0.00 0.00 74 1013.5
20260506160544 21 218 6.4 19.3 0.00 0.00 0.00 74 1013.6
20260506160055 21 178 8.0 22.5 0.00 0.00 0.00 74 1013.7
20260506155542 21 47 6.4 22.5 0.00 0.00 0.00 75 1013.7
20260506155042 21 229 6.4 17.7 0.00 0.00 0.00 75 1013.9
20260506154542 21 153 8.0 24.1 0.00 0.00 0.00 76 1013.9
20260506154044 21 224 8.0 24.1 0.00 0.00 0.00 77 1013.9
20260506153545 20 253 8.0 24.1 0.00 0.00 0.00 77 1014.0
20260506153044 20 317 6.4 14.5 0.00 0.00 0.00 78 1014.1
20260506152544 20 227 6.4 16.1 0.00 0.00 0.00 78 1014.2
20260506152305 20 259 6.4 24.1 0.00 0.00 0.00 78 1014.2
20260506151800 20 228 8.0 24.1 0.00 0.00 0.00 78 1014.2
20260506151042 20 210 8.0 19.3 0.00 0.00 0.00 77 1014.3
20260506150543 20 242 8.0 17.7 0.00 0.00 0.00 77 1014.4
20260506150055 20 179 6.4 16.1 0.00 0.00 0.00 77 1014.6
20260506145542 20 190 8.0 29.0 0.00 0.00 0.00 77 1014.6
20260506145308 20 196 9.7 29.0 0.00 0.00 0.00 77 1014.4
20260506144540 20 232 9.7 24.1 0.00 0.00 0.00 78 1014.5
20260506144040 20 271 9.7 29.0 0.00 0.00 0.00 77 1014.4
20260506143541 20 178 8.0 29.0 0.00 0.00 0.00 76 1014.4
20260506143303 20 139 8.0 20.9 0.00 0.00 0.00 76 1014.3
20260506142528 20 257 8.0 19.3 0.00 0.00 0.00 77 1014.3
20260506142022 20 231 9.7 29.0 0.00 0.00 0.00 77 1014.2
20260506141529 20 186 9.7 29.0 0.00 0.00 0.00 78 1014.2
20260506141231 20 168 8.0 22.5 0.00 0.00 0.00 78 1014.0
20260506140503 20 237 8.0 37.0 0.00 0.00 0.00 77 1014.2
20260506135957 20 163 9.7 37.0 0.00 0.00 0.00 76 1014.1
20260506135453 20 247 8.0 29.0 0.00 0.00 0.00 74 1014.2
20260506134946 20 184 8.0 25.7 0.00 0.00 0.00 74 1014.0
20260506134439 20 215 9.7 27.4 0.00 0.00 0.00 74 1014.0
20260506134157 20 304 9.7 27.4 0.00 0.00 0.00 74 1014.2
20260506133428 20 250 9.7 25.7 0.00 0.00 0.00 74 1014.2
20260506132922 20 139 9.7 22.5 0.00 0.00 0.00 74 1013.9
20260506132416 20 221 8.0 24.1 0.00 0.00 0.00 74 1014.0
20260506131911 20 307 8.0 24.1 0.00 0.00 0.00 74 1014.0
20260506131417 20 265 6.4 20.9 0.00 0.00 0.00 75 1014.1
20260506130858 20 213 6.4 20.9 0.00 0.00 0.00 75 1014.0
20260506130352 20 190 8.0 20.9 0.00 0.00 0.00 76 1014.1
20260506125847 20 211 6.4 20.9 0.00 0.00 0.00 77 1014.2
20260506125340 19 227 6.4 17.7 0.00 0.00 0.00 78 1014.0
20260506124833 19 169 6.4 22.5 0.00 0.00 0.00 79 1013.9
20260506124329 18 182 6.4 22.5 0.00 0.00 0.00 79 1013.8
20260506123822 18 130 8.0 24.1 0.00 0.00 0.00 79 1013.8
20260506123317 18 185 8.0 24.1 0.00 0.00 0.00 79 1014.0
20260506122812 18 196 8.0 25.7 0.00 0.00 0.00 79 1014.0
20260506122316 18 198 6.4 25.7 0.00 0.00 0.00 79 1014.2
20260506121757 18 222 4.8 12.9 0.00 0.00 0.00 79 1014.3
20260506121253 18 177 4.8 9.7 0.00 0.00 0.00 79 1014.4
20260506120751 18 230 6.4 17.7 0.00 0.00 0.00 79 1014.3
20260506120510 18 232 6.4 20.9 0.00 0.00 0.00 79 1014.3
20260506115748 18 186 6.4 20.9 0.00 0.00 0.00 79 1014.4
20260506115249 17 217 6.4 17.7 0.00 0.00 0.00 80 1014.4
20260506114749 17 192 4.8 12.9 0.00 0.00 0.00 79 1014.4
20260506114731 17 231 6.4 19.3 0.00 0.00 0.00 79 1014.4
20260506113745 17 174 6.4 19.3 0.00 0.00 0.00 80 1014.5
20260506113240 17 179 8.0 22.5 0.00 0.00 0.00 80 1014.3
20260506112735 17 268 6.4 22.5 0.00 0.00 0.00 80 1014.3
20260506112446 17 220 6.4 19.3 0.00 0.00 0.00 80 1014.4
20260506111722 17 203 8.0 19.3 0.00 0.00 0.00 80 1014.4
20260506111216 17 53 6.4 17.7 0.00 0.00 0.00 80 1014.5
20260506111156 17 257 4.8 17.7 0.00 0.00 0.00 80 1014.6
20260506110426 17 219 4.8 17.7 0.00 0.00 0.00 80 1014.5
20260506105657 17 203 4.8 17.7 0.00 0.00 0.00 80 1014.5
20260506105152 16 264 3.2 11.3 0.00 0.00 0.00 81 1014.4
20260506104645 16 355 3.2 19.3 0.00 0.00 0.00 81 1014.4
20260506104140 16 269 4.8 19.3 0.00 0.00 0.00 81 1014.2
20260506103855 16 203 4.8 14.5 0.00 0.00 0.00 81 1014.2
20260506103345 16 355 3.2 12.9 0.00 0.00 0.00 81 1014.1
20260506103058 16 192 3.2 14.5 0.00 0.00 0.00 81 1014.3
20260506102116 16 152 3.2 14.5 0.00 0.00 0.00 81 1014.2
20260506101610 16 226 3.2 16.1 0.00 0.00 0.00 81 1014.1
20260506101103 16 140 4.8 16.1 0.00 0.00 0.00 81 1014.1
20260506100557 16 205 4.8 14.5 0.00 0.00 0.00 81 1014.0
20260506100051 16 142 4.8 12.9 0.00 0.00 0.00 81 1014.1